Tracking 30289 objects as of 29-Apr-2025
HD Live streaming from Space Station
objects crossing your sky now

STARLINK-33699

Track STARLINK-33699 now!
10-day predictions
STARLINK-33699 is classified as:


NORAD ID: 63328
Int'l Code: 2025-057X
Perigee: 450.0 km
Apogee: 452.4 km
Inclination: 43.0 °
Period: 93.5 minutes
Semi major axis: 6822 km
RCS: Unknown
Launch date: March 18, 2025
Source: United States (US)
Launch site: AIR FORCE EASTERN TEST RANGE (AFETR)
Your satellite tracking list
Your tracking list is empty




NASA's NSSDC Master Catalog

Two Line Element Set (TLE):
1 63328U 25057X   25118.98807695  .00001202  00000-0  36056-4 0  9999
2 63328  43.0041   7.6220 0001774 264.9041  95.1613 15.40688824  7387
Source of the keplerian elements: AFSPC